Location: Unspecified
(47.5840°N, 122.3000°W)
Time: 13:49:26
(UTC+00:00)

IRIDIUM 114 - Pass Details

Date: 15 March 2026
Orbit: 776 x 779 km, 86.4° (Epoch: 18 April)

Event Time Altitude Azimuth Distance (km) Brightness Sun altitude
Exits shadow 05:57:53 32° 333° (NNW) 1,321 5.9 -35.4°
Drops below altitude 10° 06:00:55 10° 354° (N) 2,343 7.3 -35.7°
Sets 06:03:21 0° 360° (N) 3,275 8.1 -36.0°
